Milledgeville, GA

3:58 AM EST on December 09, 2019 (GMT -0500)
Baldwin County

Weather History for KMLJ - October, 2019

Change the Weather History Date:

Friday, October 25, 2019

  Actual Average (KOKZ) Record (KOKZ)
Temperature  
Mean Temperature 70 °F -  
Max Temperature 78 °F 70 °F 81 °F (2019)
Min Temperature 62 °F 50 °F 40 °F (2014)
Cooling Degree Days 5    
Growing Degree Days 20 (Base 50)    
Moisture  
Dew Point 63 °F    
Average Humidity 79    
Maximum Humidity 88    
Minimum Humidity 64    
Precipitation  
Precipitation 0.00 in - - ()
Sea Level Pressure  
Sea Level Pressure 30.16 in    
Wind  
Wind Speed 4 mph ()    
Max Wind Speed 8 mph    
Max Gust Speed -    
Visibility 10.0 miles    
Events Rain    
Averages and records for this station are not official NWS values.
T = Trace of Precipitation, MM = Missing Value Source: Averaged Metar Reports

Daily Weather History Graph

Daily Weather History Graph

Search for Another Location

Airport or City:

Astronomy

Oct. 25, 2019 Rise Set
Actual Time 7:45 AM EDT 6:48 PM EDT
Civil Twilight 7:19 AM EDT 7:13 PM EDT
Nautical Twilight 6:50 AM EDT 7:42 PM EDT
Astronomical Twilight 6:22 AM EDT 8:11 PM EDT
Moon 4:41 AM EDT (10/25) 5:37 PM EDT (10/25)
Length of Visible Light 11h 53m
Length of Day
11h 03m
Waning Crescent, 9% of the Moon is Illuminated
Oct 25
Waning Crescent
Oct 27
New
Nov 4
First Quarter
Nov 12
Full
Nov 19
Last Quarter

Hourly Weather History & Observations

Time (EDT) Temp. Dew Point Humidity Pressure Visibility Wind Dir Wind Speed Gust Speed Precip Events Conditions
12:15 AM 66.2 °F 53.6 °F 64% 30.24 in 10.0 mi East 3.5 mph - N/A   Overcast
12:35 AM 66.2 °F 53.6 °F 64% 30.24 in 10.0 mi East 4.6 mph - N/A   Mostly Cloudy
12:55 AM 66.2 °F 53.6 °F 64% 30.24 in 10.0 mi East 3.5 mph - N/A   Overcast
1:15 AM 66.2 °F 55.4 °F 68% 30.24 in 10.0 mi East 3.5 mph - N/A   Overcast
1:35 AM 66.2 °F 55.4 °F 68% 30.22 in 10.0 mi ESE 5.8 mph - N/A   Overcast
1:55 AM 66.2 °F 55.4 °F 68% 30.23 in 10.0 mi East 6.9 mph - N/A   Overcast
2:15 AM 66.2 °F 55.4 °F 68% 30.22 in 10.0 mi East 5.8 mph - N/A   Overcast
2:35 AM 66.2 °F 57.2 °F 73% 30.22 in 10.0 mi East 4.6 mph - N/A   Mostly Cloudy
2:55 AM 66.2 °F 59.0 °F 78% 30.21 in 10.0 mi East 3.5 mph - N/A   Overcast
3:35 AM 64.4 °F 59.0 °F 83% 30.21 in 10.0 mi East 5.8 mph - N/A   Scattered Clouds
4:15 AM 64.4 °F 59.0 °F 83% 30.21 in 10.0 mi East 4.6 mph - N/A   Overcast
4:55 AM 64.4 °F 59.0 °F 83% 30.20 in 10.0 mi East 6.9 mph - N/A   Overcast
5:15 AM 64.4 °F 59.0 °F 83% 30.20 in 10.0 mi East 5.8 mph - N/A   Overcast
5:35 AM 64.4 °F 59.0 °F 83% 30.20 in 10.0 mi East 3.5 mph - N/A   Overcast
5:55 AM 64.4 °F 59.0 °F 83% 30.20 in 10.0 mi East 4.6 mph - N/A   Overcast
6:15 AM 64.4 °F 60.8 °F 88% 30.21 in 10.0 mi East 3.5 mph - N/A   Overcast
6:35 AM 64.4 °F 59.0 °F 83% 30.21 in 10.0 mi Calm Calm - N/A   Overcast
6:55 AM 62.6 °F 59.0 °F 88% 30.19 in 10.0 mi ENE 3.5 mph - N/A   Scattered Clouds
7:15 AM 62.6 °F 59.0 °F 88% 30.20 in 10.0 mi Calm Calm - N/A   Clear
7:35 AM 62.6 °F 59.0 °F 88% 30.20 in 10.0 mi NNE 3.5 mph - N/A   Clear
7:55 AM 62.6 °F 59.0 °F 88% 30.21 in 10.0 mi Calm Calm - N/A   Scattered Clouds
8:15 AM 62.6 °F 59.0 °F 88% 30.22 in 10.0 mi NNE 3.5 mph - N/A   Mostly Cloudy
8:35 AM 62.6 °F 59.0 °F 88% 30.22 in 10.0 mi ENE 4.6 mph - N/A   Mostly Cloudy
8:55 AM 62.6 °F 59.0 °F 88% 30.21 in 10.0 mi East 5.8 mph - N/A   Clear
9:15 AM 62.6 °F 59.0 °F 88% 30.22 in 10.0 mi ENE 3.5 mph - N/A   Mostly Cloudy
9:35 AM 64.4 °F 60.8 °F 88% 30.22 in 10.0 mi East 3.5 mph - N/A   Overcast
9:55 AM 64.4 °F 60.8 °F 88% 30.22 in 10.0 mi Calm Calm - N/A   Overcast
10:15 AM 66.2 °F 60.8 °F 83% 30.21 in 10.0 mi East 6.9 mph - N/A   Mostly Cloudy
10:35 AM 68.0 °F 60.8 °F 78% 30.21 in 10.0 mi ESE 4.6 mph - N/A   Scattered Clouds
10:55 AM 69.8 °F 62.6 °F 78% 30.21 in 10.0 mi East 4.6 mph - N/A   Clear
11:15 AM 71.6 °F 62.6 °F 73% 30.19 in 10.0 mi East 5.8 mph - N/A   Clear
11:35 AM 71.6 °F 62.6 °F 73% 30.19 in 10.0 mi Calm Calm - N/A   Clear
11:55 AM 71.6 °F 64.4 °F 78% 30.19 in 10.0 mi Calm Calm - N/A   Scattered Clouds
12:15 PM 73.4 °F 64.4 °F 73% 30.18 in 10.0 mi East 3.5 mph - N/A   Mostly Cloudy
12:35 PM 75.2 °F 66.2 °F 73% 30.17 in 10.0 mi ESE 4.6 mph - N/A   Mostly Cloudy
12:55 PM 75.2 °F 66.2 °F 73% 30.17 in 10.0 mi ESE 4.6 mph - N/A   Overcast
1:15 PM 77.0 °F 66.2 °F 69% 30.15 in 10.0 mi ESE 6.9 mph - N/A   Overcast
1:35 PM 77.0 °F 68.0 °F 74% 30.14 in 10.0 mi ESE 3.5 mph - N/A   Overcast
1:55 PM 77.0 °F 68.0 °F 74% 30.13 in 10.0 mi SE 5.8 mph - N/A   Overcast
2:15 PM 77.0 °F 68.0 °F 74% 30.11 in 10.0 mi Calm Calm - N/A   Overcast
2:35 PM 78.8 °F 68.0 °F 69% 30.10 in 10.0 mi ESE 5.8 mph - N/A   Overcast
2:55 PM 77.0 °F 68.0 °F 74% 30.10 in 10.0 mi SSE 5.8 mph - N/A Rain Light Rain
3:15 PM 77.0 °F 68.0 °F 74% 30.10 in 10.0 mi Calm Calm - N/A   Overcast
3:35 PM 77.0 °F 68.0 °F 74% 30.09 in 10.0 mi Calm Calm - N/A   Overcast
3:55 PM 77.0 °F 68.0 °F 74% 30.09 in 10.0 mi ESE 4.6 mph - N/A   Overcast
4:15 PM 77.0 °F 68.0 °F 74% 30.08 in 10.0 mi East 6.9 mph - N/A   Overcast
4:35 PM 77.0 °F 68.0 °F 74% 30.09 in 10.0 mi East 6.9 mph - N/A   Overcast
4:55 PM 77.0 °F 68.0 °F 74% 30.09 in 10.0 mi East 5.8 mph - N/A   Overcast
5:15 PM 73.4 °F 68.0 °F 83% 30.09 in 10.0 mi SE 3.5 mph - N/A   Drizzle
5:35 PM 73.4 °F 69.8 °F 88% 30.09 in 10.0 mi Calm Calm - N/A   Overcast
5:55 PM 73.4 °F 69.8 °F 88% 30.09 in 10.0 mi ESE 6.9 mph - N/A   Overcast
6:15 PM 73.4 °F 69.8 °F 88% 30.08 in 10.0 mi East 5.8 mph - N/A   Overcast
6:35 PM 73.4 °F 69.8 °F 88% 30.09 in 10.0 mi ESE 4.6 mph - N/A   Overcast
6:55 PM 73.4 °F 68.0 °F 83% 30.09 in 10.0 mi East 4.6 mph - N/A   Overcast
7:15 PM 73.4 °F 68.0 °F 83% 30.09 in 10.0 mi East 3.5 mph - N/A   Overcast
7:35 PM 73.4 °F 68.0 °F 83% 30.09 in 10.0 mi ESE 4.6 mph - N/A   Overcast
8:15 PM 73.4 °F 68.0 °F 83% 30.09 in 10.0 mi ESE 6.9 mph - N/A   Overcast
8:35 PM 73.4 °F 68.0 °F 83% 30.09 in 10.0 mi ESE 6.9 mph - N/A   Mostly Cloudy
8:55 PM 73.4 °F 68.0 °F 83% 30.10 in 10.0 mi ESE 5.8 mph - N/A   Mostly Cloudy
9:15 PM 73.4 °F 68.0 °F 83% 30.10 in 10.0 mi SSE 6.9 mph - N/A   Overcast
9:35 PM 71.6 °F 66.2 °F 83% 30.11 in 10.0 mi SSE 5.8 mph - N/A   Overcast
9:55 PM 71.6 °F 64.4 °F 78% 30.11 in 10.0 mi SE 5.8 mph - N/A   Overcast
10:35 PM 71.6 °F 64.4 °F 78% 30.11 in 10.0 mi SE 8.1 mph - N/A   Overcast
10:55 PM 71.6 °F 64.4 °F 78% 30.11 in 10.0 mi SSE 4.6 mph - N/A   Overcast
11:15 PM 71.6 °F 64.4 °F 78% 30.11 in 10.0 mi SE 5.8 mph - N/A   Scattered Clouds
11:35 PM 71.6 °F 64.4 °F 78% 30.11 in 10.0 mi SE 5.8 mph - N/A   Clear
11:55 PM 71.6 °F 64.4 °F 78% 30.12 in 10.0 mi SE 5.8 mph - N/A   Mostly Cloudy